Location: The Jewett Observatory
(46.7288°N, 117.1525°W)
Time: 01:13:53
(UTC-07:00)

Amateur Radio Satellites - All Passes

Search period start: 30 July 2015 00:43
Search period end: 31 July 2015 00:43
Location: The Jewett Observatory, 46.7288°N, 117.1525°W

Satellite Date Start Highest point End Downlink Frequencies (MHz)
Time Altitude Azimuth
PHONESAT 2.4 30 Jul 00:49:12 00:52:08 25° 191° (S) 00:55:02 2401.200-2431.200
POLYITAN 1 30 Jul 00:50:57 00:54:56 38° 290° (WNW) 00:58:53 437.675
ESTCUBE 1 30 Jul 00:53:11 00:54:37 11° 275° (W) 00:55:45 437.505/2401.250
ISS 30 Jul 00:55:49 00:58:51 34° 353° (N) 01:01:55 145.825
AIST 1 30 Jul 01:00:23 01:02:42 14° 275° (W) 01:04:50
BEESAT 3 30 Jul 01:02:15 01:06:20 71° 308° (NW) 01:10:27 437.485
BEESAT 30 Jul 01:04:14 01:08:41 41° 69° (ENE) 01:13:13 436.000
POPSAT HIP 1 30 Jul 01:09:23 01:12:58 26° 293° (WNW) 01:16:30 437.405
TIGRISAT 30 Jul 01:11:50 01:14:25 14° 300° (WNW) 01:16:51 435.000
ANTELSAT 30 Jul 01:12:38 01:15:05 14° 300° (WNW) 01:17:23 437.575/2403.000
QB50P2 30 Jul 01:16:35 01:19:56 22° 295° (WNW) 01:23:11 145.880/145.840
SPROUT 30 Jul 01:17:23 01:20:33 20° 269° (W) 01:23:38 437.525
SWISSCUBE 30 Jul 01:24:04 01:28:49 67° 73° (ENE) 01:33:37 437.505
BUGSAT 1 30 Jul 01:26:55 01:30:18 25° 293° (WNW) 01:33:38 437.445
AIST 2 30 Jul 01:34:46 01:38:52 49° 121° (ESE) 01:43:01 435.215
TISAT 1 30 Jul 01:39:23 01:42:15 17° 269° (W) 01:45:02 437.305
ITUPSAT 1 30 Jul 01:43:45 01:48:34 89° 237° (WSW) 01:53:27 437.325
Cosmos 2491 30 Jul 01:44:37 01:51:28 26° 279° (W) 01:58:02 435.465 / 435.565
DUCHIFAT 1 30 Jul 01:45:03 01:47:11 13° 299° (WNW) 01:49:09 145.980
QB50P1 30 Jul 01:46:32 01:48:29 13° 300° (WNW) 01:50:16 145.935-145.965
NANOSAT C BR1 30 Jul 01:48:56 01:50:43 12° 300° (WNW) 01:52:21 145.865
ITAMSAT 1 30 Jul 01:53:07 01:54:12 11° 84° (E) 01:55:36 435.822/435.867
O/OREOS (USA 219) 30 Jul 01:53:09 01:57:15 37° 107° (ESE) 02:01:25 437.305
BEESAT 2 30 Jul 01:57:10 02:00:53 31° 317° (NW) 02:04:36 435.950
YUBILEINY 30 Jul 02:09:11 02:17:30 47° 290° (WNW) 02:25:52 435.215
Oscar 19 30 Jul 02:13:45 02:18:53 61° 101° (E) 02:24:01 437.125/150
STARS 30 Jul 02:15:54 02:19:20 23° 65° (ENE) 02:22:51 437.465
Cosmos 2504 30 Jul 02:16:16 02:22:14 31° 84° (E) 02:28:42 435.465 / 435.565
RS-15 30 Jul 02:23:41 02:33:27 32° 353° (N) 02:43:36 29.354- 29.394
PHONESAT 2.4 30 Jul 02:28:30 02:29:24 11° 207° (SSW) 02:30:15 2401.200-2431.200
ISS 30 Jul 02:32:38 02:35:46 41° 13° (NNE) 02:38:53 145.825
KKS-1 30 Jul 02:35:37 02:39:56 57° 72° (ENE) 02:44:18 437.445
BEESAT 3 30 Jul 02:42:39 02:45:02 15° 330° (NNW) 02:47:20 437.485
BEESAT 30 Jul 02:42:39 02:46:42 26° 267° (W) 02:50:41 436.000
Gurwin Techsat 1B 30 Jul 02:53:26 02:58:31 44° 98° (E) 03:03:36 435.225
SWISSCUBE 30 Jul 03:04:11 03:07:13 16° 272° (W) 03:10:04 437.505
JAS-2 30 Jul 03:05:19 03:12:00 32° 90° (E) 03:18:52 435.910
MOZHAYETS 4 30 Jul 03:10:13 03:13:25 19° 63° (ENE) 03:16:44
AO-7 30 Jul 03:13:36 03:18:08 16° 84° (E) 03:23:09 29.400- 29.500
AIST 2 30 Jul 03:14:02 03:17:40 26° 321° (NW) 03:21:16 435.215
ITUPSAT 1 30 Jul 03:25:35 03:27:17 11° 275° (W) 03:28:41 437.325
ITAMSAT 1 30 Jul 03:29:28 03:34:42 79° 105° (ESE) 03:39:53 435.822/435.867
HORYU 2 30 Jul 03:31:34 03:33:23 12° 87° (E) 03:35:26 437.375
O/OREOS (USA 219) 30 Jul 03:32:53 03:36:46 28° 307° (NW) 03:40:40 437.305
STARS 30 Jul 03:51:28 03:55:35 40° 262° (W) 03:59:43 437.465
Oscar 19 30 Jul 03:53:57 03:57:52 22° 299° (WNW) 04:01:40 437.125/150
Cosmos 2504 30 Jul 04:07:02 04:14:02 56° 286° (WNW) 04:21:32 435.465 / 435.565
ISS 30 Jul 04:09:05 04:12:17 54° 212° (SSW) 04:15:29 145.825
KKS-1 30 Jul 04:14:07 04:16:59 16° 271° (W) 04:19:43 437.445
YUBILEINY 30 Jul 04:15:06 04:17:25 11° 317° (NW) 04:19:11 435.215
Gurwin Techsat 1B 30 Jul 04:33:46 04:38:21 29° 296° (WNW) 04:42:49 435.225
CUSAT 1 30 Jul 04:35:32 04:38:20 41° 98° (E) 04:40:51 437.405
RS-15 30 Jul 04:39:07 04:49:47 41° 26° (NNE) 05:00:59 29.354- 29.394
MOZHAYETS 4 30 Jul 04:45:40 04:50:15 58° 260° (W) 04:54:53
JAS-2 30 Jul 04:49:51 04:57:31 66° 290° (WNW) 05:05:15 435.910
GONETS M04 30 Jul 04:56:40 05:02:14 20° 78° (ENE) 05:08:12
CUBESAT XI-V 30 Jul 04:57:30 05:00:56 21° 64° (ENE) 05:04:29 437.345
AO-7 30 Jul 05:04:13 05:12:36 75° 106° (ESE) 05:20:55 29.400- 29.500
HORYU 2 30 Jul 05:06:07 05:10:39 77° 287° (WNW) 05:15:10 437.375
ITAMSAT 1 30 Jul 05:10:16 05:13:38 17° 302° (WNW) 05:16:50 435.822/435.867
PRISM 30 Jul 05:29:05 05:30:04 11° 59° (ENE) 05:31:16 437.425
DANDE 30 Jul 05:41:26 05:44:29 34° 284° (WNW) 05:47:03 436.750
Cosmos 2504 30 Jul 06:05:49 06:08:35 12° 312° (NW) 06:10:57 435.465 / 435.565
STRAND 1 30 Jul 06:08:40 06:13:19 36° 67° (ENE) 06:18:01 437.568
Cosmos 2499 30 Jul 06:18:31 06:21:07 12° 73° (ENE) 06:24:16 435.465 / 435.565
CUTE-I 30 Jul 06:19:52 06:24:10 25° 92° (E) 06:28:33 437.470
CUBESAT XI-V 30 Jul 06:33:30 06:38:04 51° 261° (W) 06:42:39 437.345
JAS-2 30 Jul 06:36:28 06:41:22 18° 308° (NW) 06:46:02 435.910
HORYU 2 30 Jul 06:45:23 06:46:34 11° 303° (WNW) 06:47:33 437.375
GONETS M04 30 Jul 06:49:15 06:57:58 88° 99° (E) 07:06:44
RS-15 30 Jul 06:52:05 07:03:52 89° 228° (SW) 07:16:06 29.354- 29.394
AO-7 30 Jul 06:57:43 07:04:49 32° 307° (NW) 07:11:43 29.400- 29.500
BEESAT 2 30 Jul 06:58:25 07:00:16 13° 27° (NNE) 07:02:11 435.950
PRISM 30 Jul 07:00:41 07:04:53 87° 76° (ENE) 07:09:06 437.425
Cubesat XI-IV 30 Jul 07:02:38 07:07:54 58° 101° (E) 07:13:09 437.490
BEESAT 3 30 Jul 07:40:43 07:44:08 25° 40° (NE) 07:47:34 437.485
STRAND 1 30 Jul 07:47:55 07:52:34 33° 265° (W) 07:57:11 437.568
CUTE-I 30 Jul 07:59:24 08:04:33 50° 291° (WNW) 08:09:39 437.470
M-CUBED/EXP-1 PRIME 30 Jul 08:03:01 08:06:11 22° 57° (ENE) 08:09:37 437.505
Cosmos 2499 30 Jul 08:05:23 08:12:40 67° 94° (E) 08:20:36 435.465 / 435.565
AIST 2 30 Jul 08:16:06 08:18:46 16° 31° (NNE) 08:21:27 435.215
AUBIESAT-1 30 Jul 08:33:47 08:37:32 36° 62° (ENE) 08:41:37 437.475
BEESAT 2 30 Jul 08:35:11 08:39:14 56° 49° (NE) 08:43:12 435.950
PCSat 30 Jul 08:38:04 08:40:58 15° 105° (ESE) 08:44:08 145.827
Cubesat XI-IV 30 Jul 08:43:27 08:47:40 23° 299° (WNW) 08:51:44 437.490
COMPASS 1 30 Jul 08:44:46 08:47:21 16° 89° (E) 08:50:04 437.405
BRITE-PL 30 Jul 08:46:44 08:51:03 85° 103° (ESE) 08:55:37 437.365/2234.400
GONETS M04 30 Jul 08:49:23 08:56:11 24° 302° (WNW) 09:02:45
CUTE 1.7 + AOD 2 30 Jul 08:54:43 08:58:33 31° 95° (E) 09:02:23 437.475
SEEDS 30 Jul 08:55:31 08:59:05 26° 93° (E) 09:02:41 437.485
HO-68 30 Jul 08:59:27 09:06:12 43° 97° (E) 09:13:00 435.675
TIGRISAT 30 Jul 09:01:22 09:03:16 13° 59° (ENE) 09:05:21 435.000
ANTELSAT 30 Jul 09:01:59 09:04:05 14° 59° (ENE) 09:06:24 437.575/2403.000
CANX-2 30 Jul 09:02:36 09:06:41 41° 97° (E) 09:10:47 2200.000
RS-15 30 Jul 09:05:37 09:15:08 28° 256° (WSW) 09:24:26 29.354- 29.394
DOVE 4 30 Jul 09:07:19 09:11:44 53° 100° (E) 09:16:26 437.250
GOMX 1 30 Jul 09:08:26 09:12:52 85° 103° (ESE) 09:17:35 467.674
BEESAT 3 30 Jul 09:18:23 09:22:16 45° 240° (WSW) 09:26:05 437.485
AAUSAT CUBESAT 2 30 Jul 09:27:08 09:31:04 37° 96° (E) 09:34:59 437.432
DELFI C3 30 Jul 09:29:47 09:31:22 12° 87° (E) 09:33:08 145.870
CINEMA 3 30 Jul 09:32:17 09:36:43 45° 98° (E) 09:41:20 145.822/145.860
QB50P1 30 Jul 09:32:22 09:33:06 11° 59° (ENE) 09:34:04 145.935-145.965
NANOSAT C BR1 30 Jul 09:34:14 09:35:12 11° 59° (ENE) 09:36:21 145.865
M-CUBED/EXP-1 PRIME 30 Jul 09:36:49 09:40:41 44° 257° (WSW) 09:44:53 437.505
ZACube-1 30 Jul 09:47:46 09:51:03 20° 91° (E) 09:54:28 437.345
UNISAT 6 30 Jul 09:51:14 09:55:14 37° 69° (ENE) 09:59:23 437.425
AIST 2 30 Jul 09:53:48 09:58:02 80° 52° (NE) 10:02:11 435.215
Cosmos 2499 30 Jul 10:00:15 10:06:39 28° 298° (WNW) 10:13:19 435.465 / 435.565
UWE-3 30 Jul 10:06:14 10:10:29 38° 96° (E) 10:14:50 435.000/436.395/437.385
SO-50 30 Jul 10:06:54 10:11:32 53° 121° (ESE) 10:16:21 436.795
AUBIESAT-1 30 Jul 10:08:58 10:12:23 25° 263° (W) 10:15:56 437.475
FUNcube-1 30 Jul 10:09:55 10:13:57 31° 95° (E) 10:18:02 145.935
POLYITAN 1 30 Jul 10:11:22 10:14:47 25° 66° (ENE) 10:18:17 437.675
BEESAT 2 30 Jul 10:14:07 10:16:54 18° 247° (WSW) 10:19:34 435.950
CUBEBUG 2 30 Jul 10:17:11 10:21:45 61° 100° (E) 10:26:24 437.445
PCSat 30 Jul 10:18:18 10:23:44 88° 299° (WNW) 10:29:13 145.827
YUBILEINY 30 Jul 10:18:50 10:25:54 27° 60° (ENE) 10:33:10 435.215
COMPASS 1 30 Jul 10:19:14 10:23:23 53° 288° (WNW) 10:27:28 437.405
O/OREOS (USA 219) 30 Jul 10:21:22 10:24:29 18° 47° (NE) 10:27:41 437.305
Oscar 11 30 Jul 10:26:19 10:30:43 72° 103° (ESE) 10:35:04 145.826/435.025
BRITE-PL 30 Jul 10:27:24 10:29:08 12° 299° (WNW) 10:30:41 437.365/2234.400
POPSAT HIP 1 30 Jul 10:28:49 10:32:38 36° 69° (ENE) 10:36:31 437.405
UKube-1 30 Jul 10:29:05 10:31:02 13° 88° (E) 10:33:10 .
CUTE 1.7 + AOD 2 30 Jul 10:30:40 10:34:25 28° 293° (WNW) 10:38:04 437.475
SEEDS 30 Jul 10:31:03 10:34:56 33° 291° (WNW) 10:38:44 437.485
TIGRISAT 30 Jul 10:35:05 10:39:24 83° 257° (WSW) 10:43:52 435.000
QB50P2 30 Jul 10:35:45 10:39:44 44° 71° (ENE) 10:43:46 145.880/145.840
ANTELSAT 30 Jul 10:35:56 10:40:17 78° 257° (WSW) 10:44:46 437.575/2403.000
CANX-2 30 Jul 10:39:00 10:42:24 22° 295° (WNW) 10:45:41 2200.000
BUGSAT 1 30 Jul 10:44:05 10:47:42 32° 69° (ENE) 10:51:21 437.445
DOVE 4 30 Jul 10:45:56 10:49:14 20° 295° (WNW) 10:52:34 437.250
HO-68 30 Jul 10:47:16 10:54:00 44° 297° (WNW) 11:00:41 435.675
GOMX 1 30 Jul 10:48:32 10:50:32 13° 299° (WNW) 10:52:24 467.674
HUMSAT D 30 Jul 10:51:07 10:55:06 35° 96° (E) 10:59:07 437.325/437.525
DX 1 30 Jul 10:52:45 10:56:19 25° 94° (E) 10:59:56 434.975-435.025
Cosmos 2491 30 Jul 10:58:52 11:03:54 18° 76° (ENE) 11:09:23 435.465 / 435.565
VELOX 1 30 Jul 10:59:44 11:02:44 18° 91° (E) 11:05:52 145.980
DUCHIFAT 1 30 Jul 11:02:28 11:06:38 79° 76° (ENE) 11:10:51 145.980
DELFI C3 30 Jul 11:02:53 11:06:57 66° 285° (WNW) 11:10:57 145.870
AAUSAT CUBESAT 2 30 Jul 11:03:06 11:06:30 23° 294° (WNW) 11:09:47 437.432
ESTCUBE 1 30 Jul 11:03:40 11:06:09 15° 88° (E) 11:08:47 437.505/2401.250
QB50P1 30 Jul 11:04:08 11:08:19 85° 76° (ENE) 11:12:34 145.935-145.965
NANOSAT C BR1 30 Jul 11:06:12 11:10:24 88° 82° (E) 11:14:37 145.865
CINEMA 3 30 Jul 11:10:01 11:13:43 24° 294° (WNW) 11:17:26 145.822/145.860
50 SAT 30 Jul 11:10:04 11:13:26 26° 94° (E) 11:16:50 437.505
ZACube-1 30 Jul 11:23:19 11:27:40 49° 288° (WNW) 11:32:04 437.345
UNISAT 6 30 Jul 11:28:36 11:32:10 24° 268° (W) 11:35:45 437.425
AIST 2 30 Jul 11:34:09 11:36:03 13° 250° (WSW) 11:37:44 435.215
UWE-3 30 Jul 11:43:02 11:46:53 27° 293° (WNW) 11:50:43 435.000/436.395/437.385
FUNcube-1 30 Jul 11:46:14 11:50:14 31° 292° (WNW) 11:54:12 145.935
POLYITAN 1 30 Jul 11:46:44 11:50:34 34° 264° (W) 11:54:25 437.675
SO-50 30 Jul 11:48:04 11:52:22 30° 322° (NW) 11:56:43 436.795
AIST 1 30 Jul 11:53:53 11:57:39 29° 91° (E) 12:01:27
CUBEBUG 2 30 Jul 11:54:54 11:58:03 18° 297° (WNW) 12:01:08 437.445
AISAT 30 Jul 11:55:32 11:59:56 68° 102° (ESE) 12:04:20 437.250
Oscar 19 30 Jul 11:56:27 11:59:48 18° 60° (ENE) 12:03:18 437.125/150
Cosmos 2504 30 Jul 11:58:24 12:02:24 14° 51° (NE) 12:06:57 435.465 / 435.565
O/OREOS (USA 219) 30 Jul 11:59:52 12:04:26 69° 248° (WSW) 12:08:59 437.305
UKube-1 30 Jul 12:03:23 12:07:42 68° 287° (WNW) 12:11:59 .
PCSat 30 Jul 12:03:50 12:07:58 21° 325° (NW) 12:12:01 145.827
Oscar 11 30 Jul 12:03:57 12:06:23 14° 299° (WNW) 12:08:40 145.826/435.025
POPSAT HIP 1 30 Jul 12:05:15 12:08:38 23° 267° (W) 12:11:58 437.405
QB50P2 30 Jul 12:12:48 12:15:53 19° 269° (W) 12:18:52 145.880/145.840
YUBILEINY 30 Jul 12:15:02 12:23:53 80° 264° (W) 12:32:43 435.215
CUBEBUG 1 30 Jul 12:16:00 12:20:19 65° 101° (ESE) 12:24:36 437.445
BUGSAT 1 30 Jul 12:19:55 12:23:15 24° 266° (W) 12:26:30 437.445
HUMSAT D 30 Jul 12:27:07 12:30:42 25° 294° (WNW) 12:34:13 437.325/437.525
DX 1 30 Jul 12:28:40 12:32:39 35° 292° (WNW) 12:36:36 434.975-435.025
AO-7 30 Jul 12:31:16 12:31:52 10° 30° (NNE) 12:32:49 29.400- 29.500
VELOX 1 30 Jul 12:35:21 12:39:37 50° 289° (WNW) 12:43:52 145.980
HO-68 30 Jul 12:38:04 12:40:05 11° 318° (NW) 12:41:46 435.675
ESTCUBE 1 30 Jul 12:39:03 12:43:32 64° 287° (WNW) 12:47:57 437.505/2401.250
Gurwin Techsat 1B 30 Jul 12:40:25 12:43:21 16° 57° (ENE) 12:46:30 435.225
DUCHIFAT 1 30 Jul 12:42:05 12:43:05 11° 274° (W) 12:43:52 145.980
50 SAT 30 Jul 12:44:31 12:48:00 29° 292° (WNW) 12:51:26 437.505
Cosmos 2491 30 Jul 12:50:44 12:59:30 80° 96° (E) 13:08:16 435.465 / 435.565
SPROUT 30 Jul 12:59:34 13:03:49 59° 100° (E) 13:08:04 437.525
ITAMSAT 1 30 Jul 13:12:17 13:16:25 25° 62° (ENE) 13:20:38 435.822/435.867
TISAT 1 30 Jul 13:19:06 13:23:16 58° 101° (E) 13:27:26 437.305
JAS-2 30 Jul 13:22:38 13:26:40 18° 52° (NE) 13:31:14 435.910
SWISSCUBE 30 Jul 13:23:08 13:25:28 14° 87° (E) 13:28:00 437.505
AIST 1 30 Jul 13:31:30 13:35:17 28° 289° (WNW) 13:39:02
SO-50 30 Jul 13:32:44 13:34:31 12° 345° (NNW) 13:36:15 436.795
AISAT 30 Jul 13:33:25 13:36:03 15° 299° (WNW) 13:38:32 437.250
Oscar 19 30 Jul 13:33:32 13:38:39 72° 257° (WSW) 13:43:48 437.125/150
ITUPSAT 1 30 Jul 13:42:24 13:45:45 19° 90° (E) 13:49:13 437.325
Cosmos 2504 30 Jul 13:48:32 13:56:44 60° 75° (ENE) 14:05:14 435.465 / 435.565
CUBEBUG 1 30 Jul 13:53:37 13:56:14 15° 299° (WNW) 13:58:43 437.445
YUBILEINY 30 Jul 14:13:50 14:19:26 18° 284° (WNW) 14:24:36 435.215
AO-7 30 Jul 14:15:03 14:22:11 34° 55° (NE) 14:29:28 29.400- 29.500
Gurwin Techsat 1B 30 Jul 14:17:20 14:22:40 89° 77° (ENE) 14:28:02 435.225
HORYU 2 30 Jul 14:32:14 14:35:10 18° 62° (ENE) 14:38:14 437.375
DANDE 30 Jul 14:33:49 14:35:14 12° 69° (ENE) 14:36:57 436.750
SPROUT 30 Jul 14:36:44 14:39:31 17° 297° (WNW) 14:42:09 437.525
BEESAT 30 Jul 14:38:53 14:43:39 65° 101° (E) 14:48:24 436.000
Cosmos 2491 30 Jul 14:50:17 14:57:30 27° 300° (WNW) 15:04:30 435.465 / 435.565
ITAMSAT 1 30 Jul 14:50:32 14:55:38 52° 260° (W) 15:00:45 435.822/435.867
TISAT 1 30 Jul 14:55:59 14:58:38 16° 298° (WNW) 15:01:10 437.305
SWISSCUBE 30 Jul 14:59:11 15:03:59 76° 285° (WNW) 15:08:44 437.505
GONETS M04 30 Jul 15:01:50 15:04:46 12° 45° (NE) 15:08:15
JAS-2 30 Jul 15:04:34 15:10:38 81° 74° (ENE) 15:17:38 435.910
CUSAT 1 30 Jul 15:05:19 15:08:57 46° 77° (ENE) 15:13:44 437.405
SO-50 30 Jul 15:16:22 15:17:17 10° 10° (N) 15:18:16 436.795
ITUPSAT 1 30 Jul 15:19:20 15:24:03 55° 289° (WNW) 15:28:42 437.325
STARS 30 Jul 15:38:09 15:42:00 29° 95° (E) 15:45:54 437.465
PCSat 30 Jul 15:38:57 15:39:47 10° 17° (NNE) 15:40:42 145.827
Cosmos 2504 30 Jul 15:41:17 15:48:37 35° 275° (W) 15:56:01 435.465 / 435.565
KKS-1 30 Jul 16:00:07 16:04:36 79° 103° (ESE) 16:09:04 437.445
Gurwin Techsat 1B 30 Jul 16:00:50 16:03:30 13° 275° (W) 16:05:54 435.225
AO-7 30 Jul 16:06:10 16:14:31 69° 255° (WSW) 16:22:53 29.400- 29.500
HORYU 2 30 Jul 16:07:01 16:11:24 58° 259° (W) 16:15:50 437.375
DANDE 30 Jul 16:15:03 16:18:23 49° 261° (W) 16:22:44 436.750
BEESAT 30 Jul 16:17:47 16:21:03 18° 299° (WNW) 16:24:11 436.000
MOZHAYETS 4 30 Jul 16:38:14 16:42:11 27° 93° (E) 16:46:09
SWISSCUBE 30 Jul 16:39:23 16:41:04 12° 304° (NW) 16:42:34 437.505
CUSAT 1 30 Jul 16:48:45 16:51:27 17° 265° (W) 16:54:25 437.405
Cubesat XI-IV 30 Jul 16:49:31 16:53:20 21° 60° (ENE) 16:57:17 437.490
JAS-2 30 Jul 16:52:28 16:56:50 19° 277° (W) 17:01:19 435.910
SO-50 30 Jul 16:55:40 16:59:38 23° 33° (NNE) 17:03:38 436.795
GONETS M04 30 Jul 16:55:59 17:04:25 52° 72° (ENE) 17:12:54
STARS 30 Jul 17:14:31 17:18:27 31° 293° (WNW) 17:22:20 437.465
PCSat 30 Jul 17:20:28 17:25:08 29° 41° (NE) 17:29:50 145.827
KKS-1 30 Jul 17:38:20 17:40:41 14° 300° (WNW) 17:42:53 437.445
CUTE-I 30 Jul 17:44:15 17:49:27 54° 70° (ENE) 17:54:42 437.470
HO-68 30 Jul 17:50:06 17:51:34 11° 41° (NE) 17:53:22 435.675
Cosmos 2499 30 Jul 17:52:15 17:59:44 32° 64° (ENE) 18:07:34 435.465 / 435.565
AO-7 30 Jul 18:04:33 18:09:06 15° 277° (W) 18:13:06 29.400- 29.500
MOZHAYETS 4 30 Jul 18:15:13 18:19:30 36° 291° (WNW) 18:23:41
BRITE-PL 30 Jul 18:24:37 18:27:03 15° 63° (ENE) 18:29:36 437.365/2234.400
CUBESAT XI-V 30 Jul 18:27:25 18:31:32 32° 95° (E) 18:35:40 437.345
Cubesat XI-IV 30 Jul 18:27:37 18:32:58 68° 258° (WSW) 18:38:22 437.490
SO-50 30 Jul 18:35:47 18:40:47 80° 235° (SW) 18:45:39 436.795
GOMX 1 30 Jul 18:44:18 18:46:27 14° 62° (ENE) 18:48:43 467.674
GONETS M04 30 Jul 18:53:11 19:01:08 40° 273° (W) 19:08:58
PCSat 30 Jul 19:03:36 19:08:57 60° 242° (WSW) 19:14:16 145.827
CUTE-I 30 Jul 19:25:36 19:29:54 23° 269° (W) 19:34:06 437.470
VERMONT LUNAR 30 Jul 19:25:45 19:27:34 14° 160° (SSE) 19:29:25 437.305
HO-68 30 Jul 19:31:01 19:37:38 44° 63° (ENE) 19:44:20 435.675
COMPASS 1 30 Jul 19:38:57 19:41:39 17° 63° (ENE) 19:44:29 437.405
Cosmos 2499 30 Jul 19:45:02 19:53:38 69° 266° (W) 20:02:25 435.465 / 435.565
CUTE 1.7 + AOD 2 30 Jul 19:50:15 19:54:03 32° 68° (ENE) 19:57:54 437.475
SEEDS 30 Jul 19:50:18 19:53:51 27° 67° (ENE) 19:57:29 437.485
Oscar 11 30 Jul 19:51:55 19:52:26 10° 58° (ENE) 19:53:09 145.826/435.025
STRAND 1 30 Jul 19:54:47 19:59:54 67° 103° (ESE) 20:04:58 437.568
CANX-2 30 Jul 19:58:06 20:02:08 42° 70° (ENE) 20:06:13 2200.000
BRITE-PL 30 Jul 20:00:54 20:05:16 60° 259° (W) 20:09:27 437.365/2234.400
CUBESAT XI-V 30 Jul 20:04:52 20:08:58 31° 293° (WNW) 20:12:57 437.345
PRISM 30 Jul 20:15:24 20:19:34 85° 285° (WNW) 20:23:39 437.425
DOVE 4 30 Jul 20:16:12 20:20:20 71° 75° (ENE) 20:24:29 437.250
SO-50 30 Jul 20:18:36 20:20:36 12° 252° (WSW) 20:22:20 436.795
GOMX 1 30 Jul 20:19:59 20:24:12 64° 259° (W) 20:28:20 467.674
DELFI C3 30 Jul 20:20:09 20:21:50 13° 61° (ENE) 20:23:39 145.870
AAUSAT CUBESAT 2 30 Jul 20:20:28 20:24:18 36° 70° (ENE) 20:28:13 437.432
CINEMA 3 30 Jul 20:37:12 20:41:13 53° 72° (ENE) 20:45:21 145.822/145.860
ZACube-1 30 Jul 20:46:53 20:50:03 21° 65° (ENE) 20:53:21 437.345
PHONESAT 2.4 30 Jul 20:51:10 20:52:44 13° 155° (SSE) 20:54:21 2401.200-2431.200
VERMONT LUNAR 30 Jul 21:01:02 21:03:44 25° 176° (S) 21:06:27 437.305
Cosmos 2491 30 Jul 21:04:27 21:06:02 11° 43° (NE) 21:08:11 435.465 / 435.565
UWE-3 30 Jul 21:06:19 21:10:14 41° 70° (ENE) 21:14:18 435.000/436.395/437.385
FUNcube-1 30 Jul 21:08:35 21:12:21 33° 68° (ENE) 21:16:13 145.935
COMPASS 1 30 Jul 21:12:48 21:16:57 54° 261° (W) 21:21:07 437.405
M-CUBED/EXP-1 PRIME 30 Jul 21:16:27 21:18:22 12° 91° (E) 21:20:31 437.505
CUBEBUG 2 30 Jul 21:18:21 21:22:29 69° 74° (ENE) 21:26:46 437.445
HO-68 30 Jul 21:18:39 21:25:24 43° 262° (W) 21:32:09 435.675
RS-15 30 Jul 21:19:39 21:29:32 44° 111° (ESE) 21:39:55 29.354- 29.394
AISAT 30 Jul 21:22:54 21:24:18 12° 58° (ENE) 21:25:54 437.250
Oscar 11 30 Jul 21:23:34 21:27:54 79° 75° (ENE) 21:32:17 145.826/435.025
SEEDS 30 Jul 21:25:42 21:29:33 32° 265° (W) 21:33:24 437.485
CUTE 1.7 + AOD 2 30 Jul 21:26:19 21:29:59 27° 266° (W) 21:33:38 437.475
UKube-1 30 Jul 21:26:26 21:29:17 18° 62° (ENE) 21:32:13 .
STRAND 1 30 Jul 21:35:00 21:38:38 19° 300° (WNW) 21:42:08 437.568
CANX-2 30 Jul 21:35:01 21:38:16 20° 269° (W) 21:41:28 2200.000
Cosmos 2499 30 Jul 21:40:40 21:45:26 15° 285° (WNW) 21:49:43 435.465 / 435.565
CUBEBUG 1 30 Jul 21:43:10 21:43:20 10° 58° (ENE) 21:43:43 437.445
HUMSAT D 30 Jul 21:45:36 21:49:22 35° 69° (ENE) 21:53:14 437.325/437.525
AUBIESAT-1 30 Jul 21:46:08 21:49:39 21° 96° (E) 21:53:15 437.475
DX 1 30 Jul 21:50:59 21:54:49 32° 67° (ENE) 21:58:42 434.975-435.025
DELFI C3 30 Jul 21:52:19 21:56:22 75° 257° (WSW) 22:00:28 145.870
PRISM 30 Jul 21:53:44 21:54:20 10° 302° (WNW) 21:54:45 437.425
AAUSAT CUBESAT 2 30 Jul 21:56:37 22:00:01 23° 268° (W) 22:03:22 437.432
50 SAT 30 Jul 21:56:50 21:59:52 22° 66° (ENE) 22:03:00 437.505
DOVE 4 30 Jul 21:57:24 21:58:44 11° 274° (W) 21:59:52 437.250
AIST 1 30 Jul 21:59:48 22:00:44 11° 61° (ENE) 22:01:53
VELOX 1 30 Jul 21:59:59 22:03:30 24° 65° (ENE) 22:07:05 145.980
ESTCUBE 1 30 Jul 22:05:52 22:09:11 21° 64° (ENE) 22:12:37 437.505/2401.250
CINEMA 3 30 Jul 22:16:20 22:18:52 15° 272° (W) 22:21:18 145.822/145.860
ZACube-1 30 Jul 22:22:11 22:26:10 41° 263° (W) 22:30:15 437.345
TIGRISAT 30 Jul 22:24:35 22:27:44 18° 90° (E) 22:31:02 435.000
ANTELSAT 30 Jul 22:25:36 22:28:54 19° 90° (E) 22:32:21 437.575/2403.000
ISS 30 Jul 22:26:02 22:29:14 56° 148° (SSE) 22:32:27 145.825
PHONESAT 2.4 30 Jul 22:27:04 22:30:03 26° 171° (S) 22:33:03 2401.200-2431.200
VERMONT LUNAR 30 Jul 22:37:31 22:40:00 21° 192° (SSW) 22:42:27 437.305
UWE-3 30 Jul 22:43:49 22:47:00 20° 269° (W) 22:50:10 435.000/436.395/437.385
FUNcube-1 30 Jul 22:45:13 22:48:45 25° 267° (W) 22:52:16 145.935
DUCHIFAT 1 30 Jul 22:47:03 22:47:35 10° 86° (E) 22:48:23 145.980
QB50P1 30 Jul 22:48:27 22:49:47 11° 87° (E) 22:51:20 145.935-145.965
M-CUBED/EXP-1 PRIME 30 Jul 22:49:00 22:53:52 90° 217° (SW) 22:58:37 437.505
NANOSAT C BR1 30 Jul 22:50:10 22:51:38 12° 87° (E) 22:53:19 145.865
AISAT 30 Jul 22:55:49 23:00:14 87° 75° (ENE) 23:04:40 437.250
Cosmos 2491 30 Jul 22:57:40 23:05:58 46° 70° (ENE) 23:14:18 435.465 / 435.565
CUBEBUG 2 30 Jul 22:58:00 22:59:48 12° 274° (W) 23:01:25 437.445
UKube-1 30 Jul 23:00:47 23:05:02 55° 259° (W) 23:09:18 .
Oscar 11 30 Jul 23:03:11 23:04:44 11° 274° (W) 23:06:04 145.826/435.025
CUBEBUG 1 30 Jul 23:14:38 23:19:00 77° 75° (ENE) 23:23:21 437.445
BEESAT 3 30 Jul 23:14:39 23:17:00 15° 112° (ESE) 23:19:32 437.485
UNISAT 6 30 Jul 23:16:14 23:20:52 58° 101° (E) 23:25:31 437.425
AUBIESAT-1 30 Jul 23:20:00 23:24:40 54° 294° (WNW) 23:29:14 437.475
HUMSAT D 30 Jul 23:21:51 23:25:13 23° 268° (W) 23:28:33 437.325/437.525
YUBILEINY 30 Jul 23:25:05 23:31:38 26° 80° (E) 23:38:30 435.215
DX 1 30 Jul 23:27:19 23:31:05 28° 265° (W) 23:34:49 434.975-435.025
POLYITAN 1 30 Jul 23:28:54 23:32:41 31° 95° (E) 23:36:31 437.675
RS-15 30 Jul 23:30:36 23:41:33 66° 316° (NW) 23:52:57 29.354- 29.394
50 SAT 30 Jul 23:30:44 23:34:18 33° 264° (W) 23:37:52 437.505
AIST 1 30 Jul 23:34:50 23:39:08 84° 263° (W) 23:43:23
VELOX 1 30 Jul 23:35:44 23:39:53 39° 262° (W) 23:44:01 145.980
ESTCUBE 1 30 Jul 23:41:21 23:45:46 49° 261° (W) 23:50:11 437.505/2401.250
POPSAT HIP 1 30 Jul 23:46:22 23:50:28 45° 98° (E) 23:54:35 437.405
QB50P2 30 Jul 23:53:36 23:57:49 56° 100° (E) 00:02:01 145.880/145.840
SPROUT 30 Jul 23:56:14 00:00:27 65° 74° (ENE) 00:04:44 437.525
BUGSAT 1 30 Jul 23:58:15 00:02:02 37° 98° (E) 00:05:51 437.445
TIGRISAT 31 Jul 00:00:16 00:04:51 57° 288° (WNW) 00:09:28 435.000
ANTELSAT 31 Jul 00:01:27 00:06:02 53° 288° (WNW) 00:10:37 437.575/2403.000
ISS 31 Jul 00:02:39 00:05:46 40° 347° (NNW) 00:08:53 145.825
PHONESAT 2.4 31 Jul 00:04:32 00:07:33 27° 188° (S) 00:10:33 2401.200-2431.200
BEESAT 2 31 Jul 00:08:46 00:12:37 40° 120° (ESE) 00:16:31 435.950
BEESAT 31 Jul 00:12:54 00:15:32 15° 59° (ENE) 00:18:21 436.000
TISAT 1 31 Jul 00:13:44 00:17:51 63° 73° (ENE) 00:22:00 437.305
DUCHIFAT 1 31 Jul 00:19:48 00:24:04 83° 285° (WNW) 00:28:18 145.980
QB50P1 31 Jul 00:21:59 00:26:14 76° 286° (WNW) 00:30:30 145.935-145.965
NANOSAT C BR1 31 Jul 00:23:48 00:28:03 74° 286° (WNW) 00:32:17 145.865
M-CUBED/EXP-1 PRIME 31 Jul 00:25:07 00:27:59 16° 307° (NW) 00:30:42 437.505
SWISSCUBE 31 Jul 00:31:57 00:35:41 23° 63° (ENE) 00:39:30 437.505
AISAT 31 Jul 00:36:39 00:37:32 10° 274° (W) 00:38:10 437.250
